Location: Unspecified
(0.0000°N, 0.0000°E)
Time: 06:44:55
(UTC+00:00)

ISS - Pass Details

Date: 15 October 2019
Orbit: 411 x 421 km, 51.6° (Epoch: 14 October)

Event Time Altitude Azimuth Distance (km) Brightness Sun altitude
Rises 18:37:51 0° 321° (NW) 2,323 0.5 -12.9°
Reaches altitude 10° 18:39:56 10° 319° (NW) 1,465 -0.6 -13.4°
Maximum altitude 18:43:12 71° 235° (SW) 435 -3.6 -14.2°
Drops below altitude 10° 18:46:30 10° 150° (SSE) 1,475 -1.2 -15.0°
Enters shadow 18:47:08 - 149° (SSE) 1,731 -0.9 -15.2°
